Torna al catalogo

COSMOS 2251 DEB

AttivoLEO
NORAD 34004·DEBRIS·🇷🇺 Russia

Lanciato Jun 16, 1993 da Plesetsk Cosmodrome

Loading…

Prossimi Passaggi (prossime 24 ore)

TLE

AggiornatoSource: Space-Track

Epoca: Sep 14, 2026, 04:29 UTC

1 34004U 93036GP  26257.18699878  .00002302  00000-0  58562-3 0  9996
2 34004  74.0343 155.6413 0029925 107.3969 253.0468 14.50999451920232

Traccia COSMOS 2251 DEB in tempo reale con AllMySat

Download on the App Store